Regional Weather Roundup
Issued by NWS

Home | Current Version | Previous Version | Graphics & Text | Print | Product List | Glossary On
Versions: 1 2 3 4 5 6 7 8 9 10 11 12 13 14 15 16 17 18 19 20 21 22 23 24 25 26 27 28 29 30 31 32 33 34 35 36 37 38 39 40 41 42 43 44 45 46 47 48 49 50
000
ASUS43 KFSD 212202
RWRSD

WEATHER ROUNDUP FOR SOUTH DAKOTA
NATIONAL WEATHER SERVICE SIOUX FALLS SD
500 PM CDT THU AUG 21 2014

NOTE: "FAIR" INDICATES FEW OR NO CLOUDS BELOW 12,000 FEET WITH NO
SIGNIFICANT WEATHER AND/OR OBSTRUCTIONS TO VISIBILITY.


SDZ001>005-009-010-012>017-212300-
NORTHWEST AND NORTH CENTRAL SOUTH DAKOTA

CITY           SKY/WX    TMP DP  RH WIND       PRES   REMARKS
BUFFALO          N/A     81  55  40 NE6       29.90S
FAITH            N/A     83  56  39 NE7       29.92R
MOBRIDGE       SUNNY     83  64  52 N13       29.86R
$$

SDZ012>016-024>037-041>051-057-063-072>074-212300-
SOUTHWEST AND SOUTH CENTRAL SOUTH DAKOTA

CITY           SKY/WX    TMP DP  RH WIND       PRES   REMARKS
RAPID CTY ARPT MOSUNNY   78  58  49 NE5       29.95F
PIERRE         SUNNY     86  61  42 CALM      29.86S
CUSTER         PTSUNNY   77  51  40 SE8       30.08R
ELLSWORTH AFB  PTSUNNY   83  55  38 VRB2      29.96S
PHILIP         SUNNY     90  50  25 N3        29.89S
PINE RIDGE     SUNNY     85  57  38 E8        29.96F
WINNER         FAIR      89  58  34 N8        29.90R
$$

SDZ004>011-016>023-039-040-212300-
NORTHEAST SOUTH DAKOTA

CITY           SKY/WX    TMP DP  RH WIND       PRES   REMARKS
ABERDEEN       SUNNY     83  67  58 NW14      29.83R
WATERTOWN      MOSUNNY   82  68  62 NW13      29.84R
SISSETON         N/A     83  70  64 N7        29.80R
$$

SDZ017-020-022-023-036>040-048>070-212300-
SOUTHEAST SOUTH DAKOTA

CITY           SKY/WX    TMP DP  RH WIND       PRES   REMARKS
SIOUX FALLS    PTSUNNY   87  71  58 NW9       29.83R
HURON          SUNNY     87  64  46 NW10      29.82R
CHAMBERLAIN    SUNNY     85  64  47 NW6       29.87S
MITCHELL       SUNNY     87  70  56 NW9       29.83S
YANKTON        SUNNY     88  73  62 NW8       29.80S HX  96
$$

ABBREVIATIONS USED IN REMARKS
   TC - TEMPERATURE IN CELSIUS
  WCI - WIND CHILL INDEX
   HX - HEAT INDEX
  VSB - VISIBILITY



USA.gov is the U.S. government's official web portal to all federal, state and local government web resources and services.